Temp
57 57 56 55 54 53 49 41 39 60 63 47 40 39 48 54 54 57 53 52 49 44 45 42 44 47 53 61 58 51 54 47 46 57 67 71 65 62 59 54 50 51 54 57
57 56 56 55 54 53 44 38 41 58 58 38 38 44 50 53 52 50 48 47 50 49 43 39 45 50 58 60 55 52 55 45 40 51 57 62 58 61 55 56 53 53 52 55
57 56 56 56 54 54 45 39 37 46 47 45 40 40 43 47 59 52 52 48 48 45 41 41 41 46 55 57 56 61 55 43 44 40 46 53 54 60 62 59 49 52 55 61
57 57 56 56 55 54 45 41 38 41 34 38 41 40 44 44 46 56 52 44 48 42 33 38 40 46 47 53 56 51 44 42 45 52 57 59 59 61 64 54 62 60 62 64
57 57 56 56 55 54 43 38 38 40 36 39 40 42 41 44 46 45 45 43 48 45 36 39 38 40 38 41 46 45 42 42 44 46 59 60 59 64 65 65 66 61 68 64
57 57 57 56 55 51 42 49 51 41 38 36 36 36 42 44 45 48 50 47 42 41 44 43 41 41 40 41 40 42 38 39 42 40 53 55 52 60 64 65 68 67 62 69
57 57 57 56 54 53 48 48 47 41 34 34 38 44 45 45 45 40 47 44 41 47 49 47 43 41 40 43 45 44 42 36 40 41 45 40 56 64 65 62 68 68 69 72
57 57 57 56 55 54 49 48 45 41 36 39 40 43 44 44 46 43 45 50 50 51 44 36 36 33 34 41 47 47 48 38 40 40 39 52 56 61 59 57 57 66 63 73
57 57 57 57 55 54 49 48 49 44 38 38 42 40 42 38 40 41 45 52 49 47 41 37 30 28 36 39 45 50 47 47 43 41 39 40 50 61 68 66 50 65 64 65
57 57 57 57 56 53 50 48 49 44 38 43 41 36 38 43 38 35 40 47 46 46 34 33 31 31 45 39 41 41 42 43 41 41 42 48 59 63 68 50 49 62 63 62
56 57 57 57 57 55 51 48 49 45 40 40 43 48 38 39 38 36 40 41 42 42 34 33 36 37 39 36 40 39 40 40 40 41 44 40 63 63 53 57 59 61 63 62
56 56 56 57 57 56 54 47 50 49 43 43 44 48 49 48 48 41 41 41 45 43 37 35 38 36 40 40 34 43 37 39 40 45 45 52 61 56 63 66 59 59 60 62
56 56 56 56 56 56 54 47 48 46 42 42 38 43 53 49 50 53 40 46 51 47 46 41 40 36 40 36 36 40 42 44 40 47 49 49 59 64 66 65 62 62 62 62
56 56 56 56 55 55 54 48 45 46 44 38 38 54 51 58 54 56 54 55 55 51 47 42 40 38 42 40 42 40 42 44 41 45 47 50 56 54 57 64 65 66 64 63
56 56 56 56 55 54 53 51 50 50 44 36 36 45 51 53 54 56 56 51 50 47 42 41 39 42 41 43 42 40 45 40 38 37 47 46 48 54 60 59 62 65 63 62
56 55 56 55 55 54 49 45 51 50 47 41 34 44 49 53 55 53 52 50 49 49 46 43 44 47 42 36 36 43 47 48 48 45 50 51 53 56 59 56 62 66 63 61
56 55 55 54 54 50 46 43 47 52 50 43 38 37 48 53 50 49 49 51 49 48 46 45 44 45 44 38 35 42 45 47 49 50 51 49 52 50 56 57 61 64 65 64
55 55 54 54 53 51 49 52 52 50 48 46 39 38 43 51 43 41 46 44 48 48 45 45 44 45 43 36 42 45 47 48 49 48 50 50 52 55 55 57 59 58 59 61
55 54 54 51 49 47 50 58 56 49 47 40 41 31 32 46 43 42 44 42 38 44 39 41 42 39 36 40 43 45 46 45 46 48 50 51 51 52 54 54 56 56 57 59
54 50 49 45 50 58 55 46 45 45 46 42 36 45 38 42 40 40 39 39 36 37 38 42 37 39 44 46 48 47 49 49 50 44 45 47 49 50 50 52 55 55 56 58
48 47 47 50 56 50 47 42 41 43 38 43 45 40 39 45 38 36 41 37 38 32 37 37 37 34 41 47 49 50 51 52 51 51 51 52 51 51 52 53 55 54 56 58
52 52 53 51 47 44 42 40 42 41 40 43 44 41 40 42 49 44 39 37 38 33 41 38 33 40 44 46 49 50 51 51 51 51 50 52 52 52 52 53 52 54 55 56
55 50 47 45 46 38 38 34 35 36 45 46 41 40 46 41 42 39 38 36 38 42 35 34 39 44 45 45 48 49 49 49 49 49 50 50 50 52 50 49 52 53 53 52
49 48 42 45 44 45 47 45 47 49 47 46 45 42 43 45 43 40 36 37 37 33 31 33 42 42 43 45 48 48 47 47 47 47 47 48 48 49 50 49 50 50 50 50
49 49 40 47 49 51 52 54 50 49 50 47 45 46 45 42 40 38 38 35 33 33 32 38 43 44 44 44 45 45 45 44 43 45 45 45 46 46 47 49 49 50 50 49
48 46 45 48 46 47 51 50 48 51 50 51 49 45 41 39 39 39 34 33 32 33 41 44 43 43 42 44 46 46 47 45 44 44 44 44 43 43 43 45 47 47 47 47
47 47 51 47 46 45 45 46 46 48 46 43 47 44 41 45 40 39 39 36 41 42 43 44 43 43 43 44 45 47 47 45 44 44 44 44 45 43 42 41 42 44 45 48
MSLP
1022.01 1021.52 1021.00 1020.62 1020.12 1019.34 1018.52 1018.55 1017.18 1012.92 1012.72 1013.95 1014.93 1015.14 1014.10 1013.33 1012.61 1012.23 1012.68 1013.03 1013.69 1014.05 1013.93 1013.49 1012.71 1011.36 1010.76 1010.22 1010.18 1009.08 1007.42 1006.00 1004.45 1002.58 1001.17 1000.81 1001.30 1001.79 1002.31 1003.66 1004.34 1003.68 1002.83 1000.76
1021.94 1021.52 1021.01 1020.67 1020.34 1020.11 1020.20 1019.64 1017.68 1013.68 1013.44 1015.34 1015.99 1015.44 1014.50 1013.74 1013.02 1013.11 1013.62 1014.08 1014.38 1014.67 1014.94 1014.78 1013.68 1012.59 1011.60 1010.91 1011.04 1010.70 1009.32 1007.78 1006.52 1003.85 1002.39 1001.80 1001.84 1001.88 1002.18 1002.31 1002.85 1003.15 1002.60 1000.65
1021.89 1021.50 1021.16 1020.80 1020.56 1020.37 1020.47 1020.20 1018.89 1016.50 1015.91 1016.53 1016.92 1016.60 1015.48 1014.50 1013.60 1013.59 1013.84 1014.33 1014.64 1015.17 1015.43 1015.44 1014.64 1013.96 1012.80 1012.17 1011.78 1011.40 1010.35 1009.33 1008.35 1006.98 1005.52 1004.54 1003.44 1002.50 1002.28 1001.88 1002.49 1002.39 1001.58 1000.23
1021.61 1021.23 1021.07 1020.84 1020.68 1020.51 1020.76 1020.48 1019.96 1019.22 1018.75 1018.16 1018.00 1017.39 1016.54 1015.68 1014.79 1014.12 1014.15 1014.68 1015.00 1015.57 1016.04 1015.97 1015.59 1014.87 1014.03 1013.29 1012.60 1012.54 1012.03 1010.60 1008.83 1007.20 1005.78 1004.50 1003.45 1002.54 1001.60 1001.68 1000.89 1000.46 1000.54 999.98
1021.41 1021.10 1020.84 1020.68 1020.66 1020.56 1020.87 1020.74 1020.35 1020.18 1019.86 1019.24 1018.70 1018.07 1017.30 1016.60 1015.92 1015.23 1014.83 1014.88 1015.16 1015.56 1016.19 1016.45 1016.50 1016.38 1015.88 1015.09 1013.66 1013.72 1013.24 1011.35 1009.30 1007.84 1005.76 1004.46 1003.15 1002.04 1001.19 1000.48 999.98 999.46 999.09 998.95
1021.27 1020.97 1020.76 1020.65 1020.65 1020.81 1020.90 1020.52 1020.31 1020.55 1020.38 1020.06 1019.30 1019.14 1018.32 1017.50 1017.05 1015.67 1015.31 1015.29 1015.75 1015.95 1015.88 1016.35 1016.62 1016.44 1016.42 1016.05 1015.68 1015.01 1014.32 1012.56 1010.24 1008.51 1006.14 1004.47 1003.25 1001.93 1000.92 1000.19 999.28 998.85 998.73 998.38
1021.02 1020.84 1020.62 1020.49 1020.54 1020.79 1021.06 1021.18 1021.08 1021.14 1021.05 1020.72 1020.21 1019.49 1018.94 1018.11 1017.51 1016.99 1015.94 1015.83 1016.01 1015.88 1016.10 1016.00 1016.07 1015.68 1015.49 1015.33 1014.50 1014.88 1013.90 1013.43 1011.28 1008.94 1006.84 1004.99 1003.01 1002.11 1001.48 1000.88 999.77 999.20 998.18 998.03
1020.79 1020.63 1020.51 1020.45 1020.50 1020.68 1021.01 1021.18 1021.32 1021.39 1021.24 1021.01 1020.28 1019.61 1018.81 1018.04 1017.32 1016.92 1016.35 1016.07 1015.80 1015.52 1016.22 1016.73 1016.32 1015.39 1014.63 1013.63 1012.65 1013.08 1012.95 1013.43 1011.22 1009.34 1007.80 1005.10 1003.59 1003.32 1003.31 1002.87 1001.52 1001.02 1000.02 998.20
1020.64 1020.43 1020.40 1020.40 1020.44 1020.65 1021.02 1021.20 1021.21 1021.54 1021.66 1021.06 1020.73 1020.05 1019.19 1018.73 1017.96 1017.43 1016.80 1015.94 1015.74 1015.82 1016.74 1017.03 1016.64 1015.05 1013.17 1012.24 1011.02 1010.27 1011.26 1011.67 1011.03 1009.66 1008.28 1006.64 1006.16 1004.07 1002.62 1002.82 1002.98 1002.20 1001.04 999.76
1020.60 1020.37 1020.28 1020.30 1020.32 1020.58 1020.97 1021.24 1021.19 1021.53 1021.66 1020.87 1020.58 1020.37 1019.66 1018.99 1018.85 1018.60 1017.47 1016.73 1016.07 1016.23 1016.64 1016.56 1016.30 1014.44 1011.77 1011.21 1010.52 1010.40 1011.03 1011.07 1010.73 1010.18 1008.90 1007.32 1006.11 1004.25 1002.48 1003.46 1005.36 1003.84 1002.79 1001.64
1020.45 1020.32 1020.23 1020.24 1020.26 1020.54 1020.92 1021.23 1021.21 1021.50 1021.56 1020.91 1020.45 1019.92 1019.83 1019.46 1019.14 1018.64 1017.87 1017.15 1016.65 1016.22 1016.40 1016.14 1015.50 1014.27 1012.76 1011.99 1011.25 1010.97 1011.26 1011.62 1011.18 1010.23 1009.63 1009.08 1006.91 1005.20 1005.22 1006.26 1005.60 1004.80 1004.21 1003.44
1020.28 1020.22 1020.26 1020.26 1020.28 1020.49 1020.84 1021.12 1021.28 1021.52 1021.83 1020.93 1020.14 1019.46 1018.80 1018.81 1018.14 1018.21 1017.74 1017.03 1016.37 1016.16 1016.42 1016.12 1015.48 1014.51 1013.69 1012.69 1012.52 1012.13 1012.86 1013.52 1012.50 1011.39 1012.25 1011.16 1008.96 1007.99 1007.26 1006.46 1006.05 1005.81 1005.52 1005.24
1020.13 1020.09 1020.22 1020.25 1020.26 1020.40 1020.80 1021.11 1021.42 1021.69 1021.68 1020.60 1019.64 1018.10 1016.84 1017.19 1017.16 1016.62 1017.52 1015.94 1015.02 1015.54 1016.14 1016.06 1015.32 1014.73 1014.80 1014.19 1014.69 1014.16 1014.26 1013.88 1013.22 1012.13 1012.26 1011.33 1009.83 1008.50 1007.59 1007.29 1006.79 1006.58 1006.40 1006.24
1019.99 1020.04 1020.20 1020.32 1020.30 1020.33 1020.55 1021.00 1021.22 1021.42 1021.31 1020.92 1018.80 1016.88 1016.36 1015.63 1015.46 1015.44 1015.45 1014.84 1014.38 1015.11 1015.90 1016.29 1016.00 1016.08 1016.02 1015.50 1015.45 1015.43 1015.82 1014.92 1014.58 1014.01 1013.80 1011.96 1010.34 1010.38 1009.85 1008.38 1007.52 1006.81 1006.72 1006.61
1019.88 1019.88 1020.04 1020.25 1020.38 1020.38 1020.57 1020.68 1020.72 1020.72 1021.24 1020.87 1019.38 1017.53 1015.92 1015.40 1014.90 1014.44 1014.11 1014.32 1014.50 1015.16 1016.08 1016.64 1016.82 1016.88 1016.84 1016.68 1016.51 1016.54 1016.80 1016.89 1016.45 1016.12 1016.03 1015.40 1013.75 1012.64 1011.19 1009.68 1008.34 1007.58 1006.98 1006.91
1019.76 1019.75 1019.86 1020.10 1020.25 1020.43 1020.70 1020.47 1020.28 1020.37 1020.67 1020.77 1019.90 1017.60 1016.20 1015.19 1014.69 1014.20 1013.98 1013.89 1013.89 1014.83 1016.26 1017.28 1017.30 1016.92 1017.14 1017.81 1017.95 1018.08 1017.48 1017.22 1016.92 1016.49 1016.07 1015.22 1014.30 1013.26 1011.94 1011.10 1009.71 1008.04 1007.41 1007.35
1019.64 1019.64 1019.68 1019.94 1020.18 1020.40 1020.36 1020.30 1020.06 1019.85 1020.35 1020.63 1020.05 1018.52 1016.30 1015.40 1015.00 1014.71 1014.61 1014.24 1014.33 1014.76 1016.14 1017.04 1017.45 1017.45 1017.62 1018.58 1018.73 1018.74 1017.97 1017.52 1016.80 1016.60 1015.78 1014.84 1014.95 1014.20 1012.58 1012.17 1010.89 1009.57 1008.66 1008.16
1019.48 1019.50 1019.67 1019.86 1020.07 1020.26 1019.98 1019.63 1019.68 1019.82 1020.15 1020.21 1019.90 1018.86 1017.40 1016.21 1016.56 1016.57 1015.65 1015.85 1015.53 1015.90 1016.51 1017.30 1017.87 1018.35 1018.86 1019.24 1019.28 1018.55 1017.82 1017.12 1016.64 1016.52 1016.45 1015.75 1015.02 1014.42 1013.40 1012.43 1011.43 1010.95 1010.06 1009.52
1019.44 1019.50 1019.66 1019.91 1020.05 1019.78 1019.32 1019.26 1019.56 1019.86 1020.46 1020.03 1019.46 1018.95 1018.30 1017.13 1017.44 1017.38 1016.77 1016.78 1017.40 1017.43 1018.08 1018.13 1018.49 1019.22 1019.56 1019.67 1018.93 1017.95 1017.55 1017.51 1017.17 1016.77 1015.98 1015.39 1015.28 1014.90 1014.37 1013.76 1011.99 1011.69 1011.31 1010.35
1019.40 1019.64 1019.77 1019.64 1019.13 1018.97 1019.30 1019.65 1019.71 1019.78 1019.81 1019.86 1019.45 1018.24 1018.26 1017.91 1017.89 1018.18 1018.07 1017.89 1018.48 1018.76 1019.24 1018.90 1019.36 1019.65 1019.36 1019.22 1018.49 1017.81 1017.62 1017.42 1017.07 1016.80 1016.14 1015.65 1015.71 1015.13 1014.17 1013.18 1012.92 1012.89 1012.70 1010.99
1019.67 1019.48 1019.37 1019.39 1019.20 1019.21 1019.25 1019.14 1019.14 1019.04 1019.20 1018.84 1018.50 1018.39 1018.26 1017.64 1018.03 1018.33 1018.46 1018.93 1019.00 1019.38 1019.94 1019.69 1020.08 1020.10 1019.44 1018.86 1018.39 1018.08 1017.77 1017.68 1017.54 1017.07 1016.42 1015.96 1015.62 1015.36 1014.94 1014.54 1014.35 1013.62 1012.14 1011.06
1018.80 1018.86 1018.95 1019.34 1019.42 1019.17 1018.97 1018.36 1018.08 1018.14 1017.81 1017.93 1017.82 1018.10 1018.12 1018.01 1017.62 1018.04 1018.71 1019.17 1019.55 1019.96 1019.96 1020.14 1020.34 1020.50 1019.83 1019.24 1018.86 1018.62 1018.17 1017.97 1017.64 1017.46 1017.10 1017.02 1016.37 1015.67 1015.06 1014.56 1013.76 1012.74 1011.76 1011.10
1018.35 1018.69 1018.59 1018.71 1018.51 1018.30 1017.69 1017.50 1017.47 1017.34 1016.93 1016.95 1017.37 1017.76 1017.86 1018.04 1018.06 1018.20 1018.54 1018.95 1019.51 1019.73 1019.96 1020.35 1020.37 1020.32 1019.89 1019.42 1019.12 1018.89 1018.66 1018.75 1018.76 1018.48 1018.00 1017.49 1016.84 1016.50 1015.88 1015.15 1014.60 1014.03 1013.14 1012.61
1018.35 1017.79 1017.64 1017.60 1016.94 1016.33 1015.82 1015.67 1015.56 1015.66 1015.60 1016.10 1016.69 1017.31 1017.54 1017.81 1017.84 1018.08 1018.38 1019.14 1019.38 1020.08 1020.37 1020.38 1020.17 1020.12 1019.94 1019.51 1019.40 1019.21 1019.15 1018.90 1018.74 1018.49 1018.32 1017.67 1017.09 1016.60 1016.16 1015.56 1015.32 1014.78 1014.14 1013.85
1017.63 1017.13 1016.89 1015.91 1015.39 1015.16 1015.10 1015.07 1015.14 1015.46 1015.33 1015.92 1016.42 1017.02 1017.30 1017.82 1018.02 1018.27 1018.64 1019.14 1019.61 1019.97 1020.34 1020.31 1019.92 1019.78 1019.74 1019.64 1019.24 1019.08 1019.18 1019.10 1018.92 1018.71 1018.36 1018.02 1017.64 1017.25 1016.82 1016.47 1016.08 1015.42 1014.78 1014.38
1017.02 1016.73 1016.24 1015.42 1015.32 1015.40 1015.26 1015.08 1015.27 1015.22 1015.44 1015.88 1016.03 1016.41 1017.24 1017.81 1017.98 1018.21 1018.80 1019.17 1019.52 1019.48 1019.33 1019.30 1019.43 1019.46 1019.32 1019.10 1018.99 1018.98 1018.70 1018.70 1018.68 1018.60 1018.51 1018.20 1018.05 1017.81 1017.73 1017.33 1016.48 1016.02 1015.53 1015.22
1016.33 1015.85 1015.49 1015.40 1015.35 1015.43 1015.38 1015.33 1015.12 1014.82 1015.00 1015.56 1015.74 1015.83 1016.29 1017.07 1017.56 1018.05 1018.33 1018.69 1018.70 1018.68 1018.97 1019.06 1019.03 1019.09 1019.03 1018.82 1018.69 1018.52 1018.70 1019.08 1018.87 1018.62 1018.51 1018.42 1018.26 1018.11 1018.06 1017.94 1017.85 1017.59 1017.14 1016.56
Wind_Speed
16 15 14 15 15 19 6 3 2 5 6 4 0 2 2 8 6 6 8 6 7 4 7 5 5 4 8 17 18 10 5 1 5 10 7 4 5 7 9 7 5 2 5 8
15 15 12 12 13 11 3 3 5 5 5 3 4 6 4 5 7 6 4 5 5 4 4 6 4 4 15 15 16 10 9 6 6 9 6 8 4 3 4 4 6 8 7 7
13 13 13 11 10 10 3 3 4 6 6 2 3 6 5 6 6 3 3 3 2 4 4 2 8 10 9 17 16 20 9 3 5 5 5 4 7 13 7 7 6 6 6 5
12 10 11 10 9 9 3 1 3 1 5 5 8 4 5 5 5 3 3 1 2 3 3 5 6 5 9 10 9 11 7 4 2 8 10 8 10 13 13 3 10 11 9 8
12 10 10 8 7 9 3 2 3 5 4 4 6 7 5 5 14 3 4 4 4 1 4 7 13 5 4 5 6 8 7 5 0 4 4 6 12 11 9 9 7 4 8 5
11 11 9 6 4 5 2 3 3 4 5 6 3 3 6 10 7 6 6 1 3 3 6 1 5 6 6 7 6 7 5 5 4 4 9 9 4 6 4 6 6 9 8 10
11 10 9 5 1 2 1 1 1 2 4 3 3 6 8 5 5 4 6 4 4 5 1 3 5 6 8 8 15 8 9 5 5 4 4 3 5 12 5 8 9 4 3 9
11 10 8 5 1 5 2 0 2 1 2 3 5 10 5 6 7 1 3 2 6 5 5 4 6 4 2 9 19 15 18 3 5 3 2 7 7 13 9 6 6 16 11 6
10 9 7 4 1 7 2 1 1 2 0 3 3 5 4 2 4 7 5 4 4 4 2 3 3 5 7 6 5 13 14 13 2 2 2 2 5 16 19 6 4 15 14 8
9 8 6 3 3 9 2 1 2 2 1 3 2 2 4 4 3 3 6 9 3 7 3 4 5 5 6 5 8 6 6 3 5 2 2 2 15 19 7 8 5 10 15 14
7 7 5 2 2 11 3 0 3 2 2 5 3 2 1 4 2 3 5 5 4 2 3 2 3 3 4 3 5 3 5 3 3 3 2 5 20 12 9 6 6 7 12 15
6 5 4 2 2 10 6 1 1 2 1 5 3 14 17 11 16 1 2 4 4 5 2 2 2 2 4 6 4 8 6 5 3 5 4 12 10 2 5 9 4 6 8 9
3 3 2 1 2 7 6 2 2 2 1 5 3 7 6 9 12 11 2 4 4 4 5 3 1 2 4 5 6 6 10 4 2 3 13 18 13 18 17 11 9 5 5 7
3 1 0 1 3 8 8 2 3 1 1 2 8 5 9 9 6 9 11 14 4 5 3 2 3 3 6 4 4 4 3 7 7 5 14 19 15 23 23 18 10 7 5 6
3 1 2 2 4 7 2 1 4 3 0 2 6 9 7 8 7 8 7 4 4 3 3 3 3 1 1 3 3 7 6 5 4 2 8 6 13 17 23 23 9 8 1 5
4 3 4 3 5 6 2 1 2 4 3 1 4 5 7 8 8 8 8 4 3 3 5 2 4 6 3 4 3 8 8 6 4 3 11 11 10 16 21 19 24 10 1 1
4 3 4 4 5 2 2 3 4 5 3 1 4 5 6 5 5 5 4 6 2 4 3 3 2 2 4 3 4 12 10 8 6 7 13 5 12 12 19 18 20 14 10 5
5 4 4 4 3 2 2 3 2 3 1 2 2 4 5 6 4 4 3 4 5 6 3 4 3 3 3 3 7 9 10 7 4 11 7 7 10 12 14 15 16 18 16 12
5 5 6 2 2 2 2 5 3 1 2 2 2 3 3 3 3 2 5 3 5 2 4 3 4 3 3 2 5 9 8 7 10 12 11 12 11 13 12 13 16 15 16 14
8 2 2 2 2 8 6 1 1 2 2 2 3 2 2 3 1 2 2 3 1 3 2 2 4 3 3 4 5 6 6 6 10 10 12 12 11 11 14 15 12 12 13 12
1 2 2 1 0 1 1 2 2 2 2 3 3 3 1 4 3 0 2 2 3 4 3 3 2 4 5 4 6 5 6 5 7 8 8 9 10 11 11 11 11 12 12 11
1 1 4 2 1 1 2 3 1 3 3 3 3 3 3 3 3 2 1 3 2 2 1 2 2 3 4 6 5 5 5 3 7 8 10 10 11 12 11 11 13 14 13 15
1 2 3 2 3 2 4 2 3 2 3 4 2 2 2 3 2 1 3 3 3 3 2 3 3 2 4 4 4 5 3 5 5 6 8 9 10 12 13 12 12 13 13 13
2 4 3 4 3 4 0 2 3 4 4 5 3 3 3 1 2 2 4 2 4 3 2 1 2 3 1 4 2 2 3 5 6 6 7 9 11 11 12 12 11 11 12 12
3 1 3 4 1 2 1 2 3 3 2 4 3 3 3 2 2 2 3 4 3 2 3 3 3 4 2 1 2 3 3 3 4 5 6 7 8 8 11 12 10 11 12 12
2 2 3 4 3 3 1 2 1 3 3 1 2 3 4 1 2 3 2 4 2 4 3 3 4 3 1 2 1 3 3 2 1 3 4 5 5 6 6 7 9 11 12 13
3 4 3 1 1 1 1 2 3 2 3 3 1 1 3 4 0 3 2 3 2 1 4 3 5 3 1 3 3 3 5 6 4 1 2 2 4 4 5 7 7 6 6 7
Wind_Direction
327 328 326 329 339 340 17 16 359 275 38 47 86 169 282 2 353 33 39 72 47 49 1 347 332 290 345 353 359 330 308 277 276 226 224 188 151 228 173 169 261 209 159 260
331 327 328 332 344 16 349 342 275 302 97 45 329 313 3 3 13 47 51 37 45 30 13 343 302 335 345 348 356 4 325 337 350 344 356 15 13 333 202 147 109 207 143 260
335 335 328 335 341 356 64 4 349 328 34 80 35 6 347 353 28 91 123 155 51 23 340 217 291 308 311 338 337 341 319 240 151 225 239 217 289 308 307 189 137 168 214 206
331 336 331 326 342 350 76 67 292 288 331 339 330 341 356 355 342 12 155 208 192 132 283 315 283 328 331 335 327 353 30 245 262 274 261 266 269 285 292 246 226 178 203 194
332 339 332 325 340 345 72 65 35 351 292 306 341 359 9 7 342 279 258 165 240 203 216 207 286 328 31 277 324 4 349 273 114 285 269 283 272 273 276 281 208 169 149 228
327 332 332 334 337 50 14 337 346 94 291 333 28 342 353 340 350 314 37 133 117 299 260 198 251 206 226 260 294 339 294 343 355 306 314 323 325 300 258 284 248 171 175 211
328 326 327 334 268 157 123 33 16 30 288 352 12 356 319 353 340 242 298 91 112 229 29 314 264 243 226 239 263 184 264 356 279 250 349 185 216 27 26 312 281 336 162 163
327 328 324 336 221 190 120 72 104 123 268 321 304 350 308 328 321 358 265 85 215 255 53 13 315 319 219 229 242 220 212 155 277 80 234 274 16 3 338 340 310 8 338 215
326 327 328 338 268 173 104 144 111 115 235 225 323 303 308 333 336 340 296 351 17 95 112 174 249 232 212 177 244 195 184 203 155 19 3 355 278 321 308 207 313 354 357 317
325 331 332 325 186 166 125 152 173 111 214 266 58 282 304 328 10 271 294 335 352 105 217 182 222 262 231 162 163 157 137 142 152 192 269 37 334 326 310 71 284 333 7 344
324 334 343 342 158 167 136 154 195 147 231 279 241 255 251 324 228 234 288 349 326 335 289 200 241 240 328 6 1 25 118 118 191 141 154 9 341 2 62 289 319 17 22 7
321 356 351 6 145 170 168 126 153 102 297 270 243 263 249 221 230 232 262 236 193 214 331 272 270 290 358 336 52 351 61 17 336 54 61 309 299 12 8 26 31 1 39 13
319 344 322 50 145 163 166 147 123 107 306 287 336 254 262 203 221 205 197 281 245 97 154 273 200 60 350 20 35 3 355 343 30 94 349 338 342 5 15 15 15 24 30 40
288 327 270 104 155 164 163 171 180 126 250 297 282 314 299 287 222 219 206 242 327 105 105 34 358 25 355 21 52 53 345 332 324 70 14 343 352 344 336 339 358 15 26 38
244 194 192 169 159 165 182 298 209 201 111 278 280 305 263 293 317 310 304 280 235 127 73 42 43 270 351 352 30 37 6 3 10 33 1 308 288 314 341 343 328 342 357 43
226 197 205 189 168 150 134 262 235 198 157 306 310 284 294 303 311 303 309 288 221 120 81 42 358 353 56 49 46 354 358 356 343 325 314 301 297 311 344 349 334 334 55 48
219 200 196 184 171 184 180 192 236 165 125 235 302 303 282 317 353 340 356 352 357 88 111 94 154 48 48 47 32 342 349 328 333 354 335 358 352 328 338 339 348 348 19 14
196 181 172 169 177 278 265 214 172 114 186 209 271 278 353 347 345 347 349 13 14 9 71 54 43 59 44 47 344 330 350 353 32 347 340 322 323 336 341 340 359 359 359 5
167 156 154 135 217 220 214 170 149 154 179 276 263 144 260 348 323 334 350 55 49 354 33 35 71 40 71 311 332 348 360 358 330 326 341 351 356 341 341 340 355 355 342 347
150 144 153 247 209 113 100 47 171 182 214 212 231 320 272 99 7 0 54 6 60 79 298 13 49 41 215 239 283 292 299 322 323 344 347 338 340 344 346 346 348 337 314 326
189 194 225 51 340 53 225 248 197 157 235 208 240 180 299 331 90 272 36 111 357 69 336 72 44 347 318 351 260 308 291 260 313 344 0 356 344 345 342 341 338 329 330 335
178 81 122 128 246 241 261 216 204 186 228 177 179 228 173 305 356 119 348 97 94 99 125 85 91 280 294 341 349 345 25 14 350 9 8 356 2 360 351 354 347 351 4 5
152 209 186 163 156 267 220 243 300 283 184 168 150 111 168 337 39 96 121 90 81 122 97 131 109 229 313 327 353 8 23 45 20 17 17 11 14 13 14 5 5 359 10 9
236 206 38 255 175 244 217 206 200 209 184 152 137 112 133 250 14 11 80 68 62 91 93 138 162 163 280 309 330 29 353 31 5 10 14 7 19 16 16 17 10 8 17 11
244 214 233 235 217 245 352 106 67 358 82 118 112 98 73 344 68 68 81 48 68 143 178 200 197 181 158 223 360 53 104 51 11 1 360 0 6 10 17 14 10 17 18 18
214 251 283 312 44 358 44 58 141 190 167 169 274 132 146 137 218 132 108 126 187 244 196 175 142 159 115 282 318 148 198 147 101 1 350 1 9 19 358 339 4 5 12 16
197 248 225 186 124 193 296 215 261 288 107 161 31 205 119 146 348 74 111 148 183 155 99 130 162 168 251 295 306 327 183 160 181 268 343 334 332 332 7 17 355 355 357 19